Location: Champignol
(48.8087°N, 2.5056°E)
Time: 17:09:51
(UTC+00:00)

Daily predictions for brighter satellites

Satellite Brightness Start Highest point End
(mag) Time Altitude Azimuth Time Altitude Azimuth Time Altitude Azimuth
Cosmos 2218 Rocket 4.0 17:20:16 10° S 17:26:27 68° E 17:32:46 10° NNE
Cosmos 1656 3.7 17:26:44 10° SSW 17:32:16 86° ESE 17:37:47 10° NNE
SL-8 Rocket 4.1 17:26:08 10° S 17:32:28 87° E 17:38:49 10° N
X-37B 2.7 17:31:11 10° SSW 17:33:14 16° SSE 17:35:16 10° ESE
Genesis I 3.4 17:30:49 10° NNW 17:34:53 58° NE 17:38:55 10° SE
deb Chang Zheng 4 3.5 17:31:52 10° SSE 17:36:04 81° ENE 17:40:18 10° NNW
ARGOS 3.4 17:31:55 10° SE 17:37:03 46° ENE 17:42:12 10° N
Cosmos 405 2.9 17:36:11 10° S 17:39:37 87° WNW 17:43:04 10° N
SME Rocket 4.0 17:38:01 10° N 17:41:46 53° WNW 17:46:27 10° SW
Cosmos 1697 Rocket 2.8 17:36:33 10° S 17:42:03 55° ESE 17:47:34 10° NE
Cosmos 1125 Rocket 4.0 17:37:26 10° S 17:42:17 39° ESE 17:47:09 10° NE
Cosmos 1908 4.0 17:42:37 10° SSE 17:46:02 30° E 17:49:28 10° NNE
Cosmos 1607 4.0 17:40:15 10° NW 17:46:34 65° NE 17:52:43 10° SE
Cosmos 1356 3.3 17:44:03 10° NNW 17:47:28 89° ESE 17:50:51 10° S
Cosmos 2098 4.5 17:44:52 10° SSE 17:47:43 42° E 17:50:41 10° NNE
Cosmos 2227 Rocket 2.8 17:43:33 10° NNW 17:49:10 62° WSW 17:54:44 10° SSE
Iridium 4 Rocket 4.1 17:47:30 10° NNE 17:51:10 26° ENE 17:55:01 10° SE
SJ-11-01 4.3 17:47:37 10° SSE 17:52:13 61° ENE 17:56:52 10° N
Cosmos 494 Rocket 3.9 17:47:00 10° NNW 17:52:16 79° ENE 17:57:27 10° SSE
Landsat 5 3.7 17:48:42 10° NNE 17:52:56 55° E 17:57:17 10° S
Gbstr 26 Del rocket 4.4 17:47:10 10° WNW 17:54:09 78° NNE 18:01:28 13° E
MOS 1-B Rocket 4.3 17:47:56 10° NNE 17:54:57 53° E 18:00:56 10° S
CZ-2C R/B 2.9 17:49:42 10° NNE 17:55:14 54° E 18:00:40 10° S
SKYMED 2 3.6 17:51:36 10° NNE 17:55:55 63° E 18:00:13 10° S
Timation 2 Rocket 4.4 17:49:08 10° NNW 17:56:03 78° WSW 18:02:46 10° SSE
Cosmos 1726 3.8 17:55:35 10° SW 17:58:57 37° WNW 18:02:22 10° N
Cosmos 1844 Rocket 4.4 17:56:59 10° N 18:00:09 15° NNE 18:02:41 12° ENE
Cosmos 1470 3.9 17:57:04 10° SSW 18:00:56 48° WNW 18:04:48 10° N
USA 215 3.9 17:55:12 10° ENE 18:01:27 50° NNW 18:07:44 10° W
Okean O Rocket 1.6 17:58:28 10° SSE 18:02:49 85° WSW 18:07:12 10° NNW
Cosmos 2084 Rocket 3.5 17:59:15 10° SW 18:03:07 68° NW 18:07:02 10° NE
Meteor 1-16 Rocket 4.5 18:00:01 10° SSE 18:05:42 51° E 18:11:19 10° NNE
Cosmos 2123 Rocket 4.4 17:59:55 10° N 18:05:56 42° ENE 18:11:52 10° SE
Cosmos 1703 3.4 18:03:37 10° N 18:07:30 52° ENE 18:11:19 10° SSE
Cosmos 1758 3.6 18:03:48 10° SSW 18:07:46 72° W 18:11:46 10° N
CZ-4 R/B 1.6 18:05:13 10° SE 18:09:02 48° ENE 18:12:56 10° N
YAOGAN 1 2.7 18:05:38 10° SE 18:09:49 51° ENE 18:14:02 10° N
SL-16 R/B 4.0 18:07:54 10° SE 18:08:50 12° ESE 18:08:50 12° ESE
Okean-O 3.3 18:07:41 10° SE 18:11:34 33° ENE 18:15:32 10° N
Cosmos 1455 Rocket 3.4 18:10:10 10° SSE 18:14:19 42° E 18:18:31 10° NNE
Cosmos 2082 3.9 18:08:46 10° NNW 18:14:24 76° WSW 18:20:00 10° SSE
Spot 2 3.9 18:13:58 10° SSE 18:18:02 83° ENE 18:22:16 10° NNW
Cosmos 1953 2.3 18:14:25 10° S 18:18:24 63° E 18:22:26 10° NNE
H-2A R/B 2.6 18:15:24 10° NNE 18:19:08 33° E 18:22:51 10° SSE
Cosmos 1727 Rocket 4.4 18:13:41 10° NNW 18:19:53 67° W 18:26:00 10° S
Okean 1-7 Rocket 4.0 18:16:42 10° N 18:20:52 40° ENE 18:24:34 13° SE
Cosmos 2150 Rocket 4.1 18:16:21 10° SSW 18:21:49 89° ESE 18:27:14 10° NNE
Cosmos 1328 4.1 18:18:05 10° N 18:21:56 42° ENE 18:25:11 14° SE
Meteor 1-21 Rocket 4.3 18:17:07 10° NNW 18:22:58 88° ENE 18:28:53 10° S
Cosmos 1544 Rocket 4.1 18:23:32 10° SSE 18:27:35 35° E 18:31:39 10° NNE
H-2A R/B 3.4 18:27:03 10° SSW 18:32:06 43° W 18:37:18 10° NNW
ATLAS 3B R/B 2.9 18:28:30 10° SW 18:35:03 73° NW 18:41:59 10° NE
Cosmos 1300 4.5 18:32:12 10° SSE 18:38:01 18° NE 18:39:13 10° NNE
Lacrosse 4 Rocket 3.0 18:32:37 10° N 18:35:48 20° NE 18:36:04 20° NE
Cosmos 405 Rocket 2.7 18:33:12 10° N 18:37:08 88° ENE 18:41:07 10° S
OBJECT-B 3.0 18:39:31 14° NNE 18:39:31 14° NNE 18:40:08 10° NNE
COSMO-SKYMED 1 3.8 18:39:51 10° N 18:43:59 44° WNW 18:48:07 10° SW
OPS 6432 4.0 18:42:02 10° NW 18:45:00 87° NE 18:45:27 62° SE
ATLAS 5 CENTAUR R/B 1.6 18:41:23 10° SSW 18:45:08 47° ESE 18:45:39 44° E
Cosmos 1602 Rocket 4.1 18:45:07 10° N 18:48:53 37° ENE 18:48:53 37° ENE
Cosmos 2227 4.1 18:46:05 10° NNW 18:51:52 73° ENE 18:55:04 28° SE
Cosmos 2369 4.0 18:47:27 10° SW 18:53:05 69° WNW 18:58:47 10° NNE
HJ-1C 3.8 18:51:07 16° S 18:53:35 59° W 18:56:49 10° NNW
IRS-1C Rocket 4.1 18:51:53 10° SSE 18:57:08 82° WSW 19:02:27 10° NNW
H-2A R/B 3.8 18:53:50 10° S 18:58:01 42° W 19:02:06 10° NNW
Cosmos 1605 Rocket 4.0 18:52:06 10° SSE 18:58:07 54° E 19:04:16 10° NNE
In-Cosmos 22 Rocket 4.4 18:54:09 10° N 18:59:17 43° ENE 18:59:43 42° E
CENTAUR R/B 4.4 18:54:41 10° WNW 19:00:27 27° N 19:06:08 13° NE
USA 186 4.2 19:04:37 15° N 19:04:37 15° N 19:05:13 10° N
Cosmos 1174 4.0 18:59:40 10° SW 19:02:47 46° NW 19:03:08 43° NNW
Cosmos 1535 Rocket 4.4 18:56:38 10° S 19:02:50 78° E 19:09:12 10° NNE
Cosmos 1980 Rocket 2.5 19:01:36 10° SW 19:07:14 69° WNW 19:12:57 10° NNE
Meteor 2-10 Rocket 3.9 19:03:26 10° SSE 19:09:28 46° ENE 19:14:06 10° NNE
Cosmos 2263 Rocket 2.3 19:03:42 10° NNW 19:09:16 70° WSW 19:12:46 23° SSE
X-37B 2.4 19:06:23 10° WSW 19:08:08 25° SW 19:08:08 25° SW
Cosmos 1269 Rocket 4.2 19:05:53 10° NNW 19:11:11 70° WSW 19:14:30 23° S
CSL-04 Debris 4.1 19:08:41 18° SSE 19:12:50 83° WSW 19:18:18 10° NNW
SJ-6B 4.2 19:21:19 29° N 19:21:19 29° N 19:23:22 10° N
Cosmos 614 Rocket 4.4 19:19:54 10° NNW 19:24:03 45° NNE 19:24:03 45° NNE
Cosmos 2251 Rocket 3.9 19:20:03 10° NNW 19:24:31 46° NE 19:24:31 46° NE
Cosmos 1697 Rocket 4.4 19:21:18 10° WSW 19:26:19 31° NW 19:31:21 10° NNE
Cosmos 1626 Rocket 3.8 19:23:16 10° NNW 19:27:35 64° W 19:28:12 56° SW
Cosmos 371 Rocket 4.4 19:26:20 10° SSW 19:28:53 32° SSW 19:28:53 32° SSW
CSL-04 Rocket 4.1 19:30:11 23° S 19:33:39 63° WSW 19:39:11 10° NNW
Cosmos 2278 4.3 19:31:21 10° SW 19:36:55 55° WNW 19:42:33 10° NNE
Ariane Rocket 4.0 19:41:05 35° NNE 19:41:05 35° NNE 19:44:15 10° N
Orbus 7S? 4.0 19:33:39 10° WNW 19:41:55 78° N 19:41:55 78° N
USA 215 3.9 19:42:01 37° NE 19:43:49 44° N 19:49:57 10° WNW
CZ-4 R/B 4.2 19:41:39 10° SW 19:44:18 17° W 19:47:00 10° NW
Cosmos 1844 Rocket 3.1 19:39:50 10° NNW 19:44:21 49° NNE 19:44:21 49° NNE
Cosmos 2278 Rocket 4.2 19:44:00 10° N 19:46:37 16° NNE 19:46:37 16° NNE
Okean-O 4.4 19:45:17 16° SSW 19:48:02 30° W 19:51:59 10° NNW
SL-16 R/B 3.6 19:48:24 10° SSW 19:50:50 27° SSW 19:50:50 27° SSW
H-2A R/B 4.0 19:51:33 10° N 19:55:00 27° WNW 19:58:29 10° WSW
Resurs 01 Rocket 4.0 20:03:55 16° N 20:03:55 16° N 20:04:54 10° N
SeaSat 1 4.4 20:14:12 21° N 20:14:12 21° N 20:16:08 10° NNW
Cosmos 1844 4.4 20:05:54 10° NNW 20:10:05 47° N 20:10:05 47° N
Cosmos 2344 4.2 20:03:28 10° NW 20:12:32 82° SW 20:15:56 53° SSE
Lacrosse 4 Rocket 3.6 20:10:39 10° NW 20:12:21 24° NW 20:12:21 24° NW
ATLAS 3B R/B 4.2 20:21:09 10° W 20:26:55 29° NNW 20:30:33 19° NNE
ATLAS 5 CENTAUR R/B 4.1 20:26:15 10° W 20:27:13 16° W 20:27:13 16° W
CENTAUR R/B 4.1 20:46:44 10° NW 20:53:18 34° NNE 20:53:18 34° NNE
